DMSP 5D-3 F16 (USA 172)

Last updated on Fri Sep 11 2026 00:02:38 GMT+0000 (Coordinated Universal Time)

1 28054U 03048A 26253.61750534 .00000043 00000+0 46301-4 0 9997 2 28054 98.9869 278.0011 0005941 264.4082 173.7575 14.14489950181565
UTC large
Height (km)
Speed (km/s)
/
Latitude / Longitude
Inclination (degrees)
Orbital Period (minutes)
Azimuth
Elevation
Range (km)
Doppler Factor

Next 0 passes for location: London (51.5072 / 0.1276)

No passes found over London.
DMSP 5D-3 F16 (USA 172)